Home > Weather > Cali > Past weeks

Flag for Colombia Weather for the Past 2 Weeks in Cali, Colombia

Now
73 °F

Partly cloudy.


Feels Like: 74 °F
Forecast: 69 / 88 °F
Wind: 3 mph from Northeast

Location: Cali / Alfonso Bonillaaragon

Current Time: Feb 5, 2016 at 10:21:00 PM

Latest Report: Feb 5, 2016 at 9:00 PM


Visibility: N/A

Pressure: 29.98 "Hg (26.85 "Hg at 955m altitude)

Humidity: 78%

Dew point: 66 °F

Location of CaliLocation

Historic Weather in Cali — Graph

°F

Cali Temperature Yesterday

Maximum temperature yesterday: 88 °F (at 1:00 PM)
Minimum temperature yesterday: 70 °F (at 2:00 AM)
Average temperature yesterday: 76 °F

High & Low Weather Summary for the Past Weeks

 TemperatureHumidityPressure
High91 °F (Jan 22, 4:00 PM)100% (Jan 25, 3:00 AM)30.07 "Hg (Jan 25, 3:00 AM)
Low66 °F (Jan 26, 7:00 AM)41% (Jan 22, 4:00 PM)29.81 "Hg (Jan 24, 4:00 PM)
Average77 °F72%29.96 "Hg
* Reported Jan 21 9:00 PM — Feb 5 9:00 PM, Cali, Weather by CustomWeather, © 2016

Note: Actual official high and low records may vary slightly from our data, if they occured in-between our weather recording intervals... More about our weather records

Advertising

Cali Weather History for the Previous 24 Hours

 ConditionsComfort  
Time TempWeatherWind HumidityBarometerVisibility
9:00 PM
Fri, Feb 5
73 °FPartly cloudy.3 mph78%29.98 "HgN/A
8:00 PM77 °FPartly cloudy.2 mph65%29.95 "HgN/A
7:00 PM79 °FPartly cloudy.8 mph61%29.92 "HgN/A
6:00 PM81 °FScattered showers. Partly sunny.12 mph58%29.90 "HgN/A
5:00 PM82 °FScattered showers. Broken clouds.7 mph58%29.88 "HgN/A
4:00 PM84 °FScattered showers. Broken clouds.8 mph55%29.88 "HgN/A
3:00 PM84 °FScattered clouds.9 mph55%29.90 "HgN/A
2:00 PM86 °FScattered clouds.3 mph52%29.94 "HgN/A
1:00 PM81 °FScattered showers. Broken clouds.3 mph62%29.99 "HgN/A
12:00 PM81 °FBroken clouds.5 mph66%30.02 "HgN/A
11:00 AM77 °FBroken clouds.5 mph74%30.05 "Hg5 mi
10:00 AM73 °FBroken clouds.3 mph83%30.06 "Hg5 mi
9:00 AM72 °FBroken clouds.No wind88%30.06 "Hg5 mi
8:00 AM70 °FScattered showers. Partly sunny.No wind94%30.04 "Hg4 mi
7:00 AM70 °FScattered showers. Partly sunny.3 mph94%30.02 "Hg5 mi
6:00 AM70 °FPassing clouds.No wind94%30.00 "Hg6 mi
5:00 AM70 °FPartly cloudy.2 mph94%29.99 "HgN/A
4:00 AM70 °FPartly cloudy.5 mph94%29.98 "HgN/A
3:00 AM70 °FPassing clouds.6 mph94%29.98 "HgN/A
2:00 AM70 °FPassing clouds.3 mph94%29.99 "HgN/A
1:00 AM72 °FPassing clouds.5 mph88%30.00 "HgN/A
12:00 AM72 °FPassing clouds.5 mph83%30.01 "HgN/A
11:00 PM
Thu, Feb 4
73 °FPartly cloudy.2 mph78%30.01 "HgN/A
10:00 PM73 °FPassing clouds.3 mph78%29.99 "HgN/A
Weather by CustomWeather, © 2016

See weather overviewHow to use our weather pages